QPF
0.06 0.05 0.04 0.04 0.03 0.03 0.03 0.04 0.04 0.05 0.04 0.03 0.03 0.03 0.02 0.02 0.01 0.01 0.00 0.00 0.00 0.00 0.00 0.00 0.00 0.00 0.00 0.00 0.00 0.00 0.00 0.00 0.00 0.00 0.00 0.00 0.01 0.01
0.05 0.04 0.03 0.03 0.02 0.02 0.02 0.03 0.03 0.04 0.04 0.03 0.03 0.02 0.02 0.01 0.01 0.01 0.00 0.00 0.00 0.00 0.00 0.00 0.00 0.00 0.00 0.00 0.00 0.00 0.00 0.00 0.00 0.00 0.01 0.01 0.01 0.01
0.04 0.03 0.03 0.02 0.02 0.02 0.02 0.02 0.03 0.03 0.03 0.02 0.02 0.01 0.01 0.01 0.00 0.00 0.00 0.00 0.00 0.00 0.00 0.00 0.00 0.00 0.00 0.00 0.00 0.00 0.00 0.00 0.00 0.00 0.01 0.01 0.01 0.01
0.03 0.02 0.02 0.02 0.01 0.01 0.01 0.02 0.02 0.02 0.02 0.02 0.02 0.01 0.01 0.01 0.00 0.00 0.00 0.00 0.00 0.00 0.00 0.00 0.00 0.00 0.00 0.00 0.00 0.00 0.00 0.00 0.00 0.00 0.00 0.01 0.01 0.01
0.02 0.02 0.01 0.01 0.01 0.01 0.01 0.01 0.01 0.02 0.02 0.02 0.02 0.02 0.01 0.01 0.01 0.01 0.01 0.00 0.00 0.00 0.00 0.00 0.00 0.00 0.00 0.00 0.00 0.00 0.00 0.00 0.00 0.00 0.01 0.01 0.01 0.01
0.01 0.01 0.01 0.01 0.01 0.01 0.01 0.01 0.01 0.01 0.02 0.02 0.02 0.02 0.02 0.01 0.01 0.01 0.01 0.01 0.01 0.00 0.00 0.00 0.00 0.00 0.00 0.00 0.00 0.00 0.00 0.00 0.00 0.00 0.01 0.01 0.01 0.01
0.01 0.01 0.01 0.01 0.01 0.01 0.01 0.01 0.01 0.01 0.01 0.02 0.02 0.02 0.02 0.01 0.01 0.01 0.01 0.01 0.01 0.01 0.00 0.00 0.00 0.00 0.00 0.00 0.00 0.00 0.00 0.00 0.00 0.01 0.01 0.01 0.01 0.01
0.01 0.01 0.01 0.01 0.01 0.01 0.01 0.01 0.01 0.01 0.01 0.01 0.01 0.01 0.01 0.01 0.01 0.01 0.00 0.01 0.01 0.00 0.00 0.00 0.00 0.00 0.00 0.00 0.00 0.00 0.00 0.01 0.01 0.01 0.01 0.00 0.01 0.01
0.01 0.01 0.01 0.01 0.01 0.00 0.00 0.00 0.00 0.00 0.00 0.00 0.01 0.01 0.01 0.01 0.01 0.01 0.01 0.01 0.00 0.00 0.00 0.00 0.00 0.00 0.00 0.00 0.01 0.01 0.01 0.00 0.00 0.00 0.00 0.00 0.01 0.01
0.00 0.01 0.01 0.01 0.00 0.00 0.00 0.00 0.00 0.00 0.00 0.00 0.00 0.00 0.00 0.01 0.01 0.01 0.01 0.01 0.01 0.00 0.00 0.00 0.00 0.00 0.00 0.00 0.00 0.00 0.00 0.00 0.00 0.00 0.00 0.00 0.00 0.01
0.00 0.00 0.01 0.01 0.01 0.00 0.00 0.00 0.00 0.00 0.00 0.00 0.00 0.00 0.01 0.01 0.02 0.02 0.02 0.02 0.02 0.01 0.01 0.01 0.01 0.00 0.00 0.00 0.00 0.00 0.00 0.00 0.01 0.00 0.00 0.00 0.01 0.01
0.01 0.00 0.00 0.00 0.00 0.00 0.00 0.00 0.00 0.00 0.00 0.00 0.00 0.00 0.00 0.01 0.01 0.01 0.02 0.02 0.02 0.02 0.01 0.01 0.01 0.02 0.02 0.00 0.00 0.00 0.00 0.00 0.00 0.00 0.00 0.00 0.01 0.01
0.01 0.01 0.01 0.00 0.00 0.00 0.00 0.00 0.00 0.00 0.00 0.00 0.00 0.00 0.00 0.00 0.01 0.01 0.01 0.02 0.02 0.02 0.01 0.02 0.02 0.02 0.02 0.01 0.00 0.00 0.00 0.00 0.00 0.00 0.00 0.00 0.01 0.01
0.01 0.01 0.01 0.01 0.00 0.00 0.00 0.00 0.00 0.01 0.00 0.00 0.00 0.01 0.00 0.01 0.01 0.01 0.01 0.01 0.02 0.02 0.01 0.02 0.03 0.03 0.03 0.02 0.01 0.00 0.00 0.00 0.00 0.00 0.00 0.00 0.00 0.01
0.00 0.00 0.01 0.01 0.01 0.00 0.00 0.00 0.00 0.00 0.00 0.00 0.01 0.01 0.01 0.01 0.01 0.01 0.01 0.01 0.01 0.01 0.02 0.02 0.03 0.03 0.03 0.03 0.02 0.01 0.01 0.00 0.00 0.00 0.00 0.01 0.01 0.01
0.01 0.01 0.01 0.01 0.01 0.01 0.00 0.00 0.00 0.01 0.01 0.01 0.01 0.01 0.01 0.01 0.01 0.01 0.01 0.01 0.01 0.01 0.01 0.01 0.01 0.02 0.03 0.02 0.02 0.02 0.01 0.01 0.00 0.00 0.00 0.00 0.00 0.00
0.01 0.01 0.01 0.01 0.01 0.01 0.01 0.01 0.01 0.01 0.01 0.01 0.01 0.01 0.01 0.01 0.01 0.01 0.01 0.01 0.02 0.01 0.01 0.01 0.01 0.01 0.02 0.02 0.02 0.01 0.01 0.01 0.00 0.00 0.01 0.01 0.00 0.00
0.01 0.01 0.01 0.01 0.01 0.01 0.00 0.00 0.00 0.00 0.00 0.01 0.01 0.01 0.01 0.01 0.01 0.01 0.01 0.02 0.02 0.01 0.01 0.01 0.01 0.02 0.02 0.01 0.01 0.01 0.00 0.00 0.00 0.00 0.00 0.01 0.00 0.00
0.01 0.01 0.01 0.01 0.01 0.00 0.00 0.00 0.00 0.00 0.00 0.01 0.01 0.01 0.01 0.01 0.01 0.01 0.01 0.02 0.02 0.01 0.01 0.01 0.02 0.03 0.04 0.02 0.00 0.00 0.00 0.00 0.00 0.00 0.00 0.00 0.00 0.00
0.01 0.01 0.01 0.01 0.01 0.00 0.00 0.00 0.00 0.01 0.01 0.01 0.01 0.01 0.01 0.01 0.01 0.01 0.01 0.02 0.02 0.01 0.01 0.01 0.02 0.02 0.03 0.02 0.01 0.00 0.00 0.00 0.01 0.01 0.01 0.00 0.00 0.00
0.01 0.01 0.01 0.01 0.01 0.01 0.00 0.01 0.01 0.01 0.01 0.01 0.01 0.01 0.01 0.02 0.02 0.01 0.01 0.01 0.02 0.02 0.02 0.01 0.01 0.01 0.02 0.03 0.03 0.01 0.00 0.00 0.01 0.01 0.01 0.02 0.01 0.00
0.01 0.02 0.01 0.01 0.01 0.01 0.01 0.01 0.01 0.01 0.01 0.01 0.01 0.01 0.02 0.02 0.02 0.02 0.02 0.02 0.02 0.02 0.02 0.01 0.01 0.02 0.03 0.03 0.02 0.01 0.00 0.00 0.00 0.01 0.01 0.02 0.03 0.02
0.02 0.02 0.01 0.01 0.01 0.01 0.01 0.01 0.01 0.01 0.01 0.01 0.02 0.02 0.02 0.02 0.02 0.02 0.02 0.02 0.02 0.02 0.02 0.02 0.02 0.02 0.02 0.02 0.02 0.01 0.01 0.01 0.01 0.01 0.00 0.00 0.01 0.01
MSLP
1021.41 1021.76 1022.09 1022.38 1022.63 1022.84 1023.02 1023.16 1023.28 1023.36 1023.42 1023.46 1023.48 1023.49 1023.48 1023.47 1023.46 1023.43 1023.40 1023.35 1023.29 1023.20 1023.10 1022.96 1022.79 1022.60 1022.38 1022.15 1021.91 1021.67 1021.43 1021.19 1020.97 1020.74 1020.51 1020.27 1020.01 1019.73
1021.44 1021.81 1022.14 1022.45 1022.72 1022.95 1023.14 1023.30 1023.42 1023.51 1023.57 1023.60 1023.60 1023.59 1023.56 1023.52 1023.47 1023.41 1023.35 1023.28 1023.20 1023.10 1022.97 1022.82 1022.64 1022.44 1022.22 1021.97 1021.73 1021.48 1021.24 1021.01 1020.78 1020.55 1020.32 1020.07 1019.79 1019.48
1021.42 1021.80 1022.15 1022.46 1022.74 1022.99 1023.21 1023.39 1023.53 1023.64 1023.71 1023.74 1023.74 1023.71 1023.66 1023.59 1023.50 1023.41 1023.31 1023.20 1023.08 1022.95 1022.80 1022.63 1022.43 1022.20 1021.96 1021.70 1021.44 1021.18 1020.93 1020.68 1020.45 1020.22 1019.98 1019.72 1019.44 1019.13
1021.34 1021.73 1022.08 1022.41 1022.70 1022.97 1023.20 1023.41 1023.58 1023.72 1023.80 1023.85 1023.85 1023.81 1023.74 1023.64 1023.52 1023.39 1023.25 1023.10 1022.95 1022.78 1022.60 1022.39 1022.16 1021.92 1021.65 1021.37 1021.09 1020.80 1020.53 1020.27 1020.01 1019.77 1019.52 1019.26 1018.98 1018.68
1021.22 1021.60 1021.95 1022.28 1022.58 1022.86 1023.12 1023.35 1023.55 1023.71 1023.82 1023.88 1023.89 1023.85 1023.76 1023.64 1023.49 1023.32 1023.15 1022.96 1022.77 1022.57 1022.36 1022.13 1021.88 1021.61 1021.32 1021.02 1020.71 1020.39 1020.09 1019.80 1019.52 1019.25 1018.99 1018.73 1018.45 1018.17
1021.04 1021.41 1021.76 1022.08 1022.38 1022.67 1022.93 1023.18 1023.40 1023.58 1023.71 1023.78 1023.80 1023.75 1023.66 1023.52 1023.35 1023.16 1022.96 1022.76 1022.54 1022.33 1022.10 1021.86 1021.59 1021.31 1021.00 1020.67 1020.33 1019.99 1019.65 1019.32 1019.01 1018.71 1018.43 1018.16 1017.89 1017.61
1020.83 1021.18 1021.51 1021.81 1022.10 1022.38 1022.65 1022.90 1023.12 1023.31 1023.44 1023.52 1023.54 1023.50 1023.41 1023.26 1023.09 1022.89 1022.68 1022.47 1022.25 1022.03 1021.81 1021.56 1021.30 1021.01 1020.69 1020.34 1019.98 1019.60 1019.23 1018.86 1018.51 1018.17 1017.87 1017.57 1017.30 1017.02
1020.59 1020.92 1021.22 1021.51 1021.78 1022.04 1022.28 1022.52 1022.73 1022.90 1023.03 1023.11 1023.13 1023.09 1023.00 1022.86 1022.69 1022.50 1022.30 1022.09 1021.89 1021.69 1021.47 1021.24 1020.99 1020.71 1020.39 1020.03 1019.64 1019.24 1018.82 1018.41 1018.02 1017.64 1017.29 1016.97 1016.67 1016.39
1020.34 1020.64 1020.92 1021.18 1021.42 1021.65 1021.86 1022.07 1022.25 1022.40 1022.51 1022.57 1022.58 1022.55 1022.46 1022.33 1022.18 1022.01 1021.83 1021.65 1021.47 1021.29 1021.10 1020.89 1020.65 1020.38 1020.06 1019.70 1019.30 1018.87 1018.42 1017.97 1017.53 1017.11 1016.72 1016.35 1016.01 1015.70
1020.09 1020.38 1020.63 1020.86 1021.06 1021.25 1021.43 1021.58 1021.72 1021.83 1021.92 1021.96 1021.96 1021.92 1021.85 1021.74 1021.60 1021.46 1021.31 1021.16 1021.00 1020.85 1020.68 1020.49 1020.27 1020.01 1019.70 1019.33 1018.92 1018.47 1018.00 1017.51 1017.03 1016.56 1016.12 1015.71 1015.32 1014.97
1019.86 1020.13 1020.37 1020.57 1020.74 1020.88 1021.01 1021.11 1021.20 1021.27 1021.32 1021.34 1021.33 1021.29 1021.22 1021.13 1021.02 1020.90 1020.78 1020.65 1020.51 1020.37 1020.22 1020.05 1019.84 1019.58 1019.27 1018.90 1018.48 1018.02 1017.52 1017.01 1016.49 1015.99 1015.50 1015.05 1014.62 1014.21
1019.64 1019.91 1020.14 1020.32 1020.45 1020.56 1020.63 1020.69 1020.72 1020.75 1020.76 1020.76 1020.74 1020.70 1020.64 1020.56 1020.48 1020.37 1020.26 1020.15 1020.02 1019.89 1019.74 1019.56 1019.35 1019.09 1018.78 1018.41 1017.99 1017.52 1017.01 1016.48 1015.94 1015.40 1014.89 1014.39 1013.93 1013.48
1019.44 1019.72 1019.94 1020.10 1020.21 1020.28 1020.31 1020.31 1020.31 1020.29 1020.27 1020.25 1020.22 1020.18 1020.13 1020.06 1019.98 1019.89 1019.79 1019.67 1019.54 1019.39 1019.22 1019.03 1018.81 1018.54 1018.22 1017.85 1017.43 1016.96 1016.45 1015.92 1015.37 1014.82 1014.29 1013.77 1013.28 1012.81
1019.25 1019.54 1019.76 1019.91 1019.99 1020.02 1020.02 1019.99 1019.94 1019.89 1019.85 1019.81 1019.77 1019.74 1019.69 1019.63 1019.55 1019.46 1019.34 1019.21 1019.06 1018.88 1018.69 1018.48 1018.23 1017.95 1017.62 1017.25 1016.83 1016.37 1015.87 1015.34 1014.80 1014.25 1013.71 1013.19 1012.69 1012.21
1019.05 1019.35 1019.57 1019.71 1019.77 1019.78 1019.75 1019.68 1019.61 1019.54 1019.48 1019.43 1019.39 1019.36 1019.31 1019.25 1019.16 1019.05 1018.92 1018.76 1018.57 1018.36 1018.14 1017.89 1017.62 1017.32 1016.99 1016.62 1016.21 1015.76 1015.28 1014.77 1014.24 1013.70 1013.17 1012.65 1012.16 1011.68
1018.84 1019.14 1019.35 1019.48 1019.54 1019.52 1019.47 1019.39 1019.30 1019.22 1019.15 1019.10 1019.06 1019.02 1018.96 1018.89 1018.79 1018.66 1018.49 1018.30 1018.07 1017.83 1017.56 1017.29 1016.99 1016.68 1016.35 1015.98 1015.59 1015.15 1014.69 1014.20 1013.68 1013.16 1012.64 1012.14 1011.65 1011.20
1018.60 1018.90 1019.11 1019.23 1019.27 1019.25 1019.18 1019.10 1019.00 1018.92 1018.85 1018.80 1018.75 1018.70 1018.64 1018.55 1018.42 1018.26 1018.05 1017.82 1017.55 1017.27 1016.97 1016.67 1016.36 1016.04 1015.71 1015.35 1014.97 1014.56 1014.11 1013.63 1013.14 1012.63 1012.12 1011.62 1011.14 1010.70
1018.34 1018.63 1018.83 1018.94 1018.98 1018.96 1018.90 1018.81 1018.73 1018.65 1018.58 1018.52 1018.47 1018.41 1018.32 1018.20 1018.04 1017.84 1017.60 1017.32 1017.02 1016.70 1016.37 1016.05 1015.73 1015.41 1015.08 1014.74 1014.38 1013.98 1013.55 1013.08 1012.59 1012.08 1011.57 1011.07 1010.60 1010.16
1018.07 1018.35 1018.54 1018.65 1018.69 1018.68 1018.63 1018.56 1018.48 1018.41 1018.35 1018.29 1018.22 1018.14 1018.02 1017.87 1017.67 1017.42 1017.13 1016.82 1016.48 1016.13 1015.79 1015.46 1015.13 1014.82 1014.50 1014.17 1013.82 1013.43 1013.01 1012.55 1012.05 1011.54 1011.02 1010.51 1010.02 1009.57
1017.81 1018.07 1018.26 1018.38 1018.43 1018.43 1018.40 1018.35 1018.29 1018.23 1018.17 1018.09 1018.01 1017.90 1017.74 1017.55 1017.30 1017.01 1016.68 1016.33 1015.96 1015.59 1015.24 1014.90 1014.58 1014.28 1013.98 1013.66 1013.32 1012.94 1012.52 1012.06 1011.56 1011.03 1010.49 1009.96 1009.45 1008.98
1017.56 1017.82 1018.02 1018.14 1018.21 1018.23 1018.22 1018.19 1018.15 1018.09 1018.03 1017.94 1017.83 1017.68 1017.49 1017.25 1016.96 1016.62 1016.25 1015.87 1015.48 1015.10 1014.74 1014.41 1014.10 1013.81 1013.52 1013.22 1012.90 1012.53 1012.11 1011.64 1011.13 1010.59 1010.03 1009.48 1008.95 1008.46
1017.34 1017.61 1017.81 1017.95 1018.03 1018.08 1018.08 1018.07 1018.03 1017.98 1017.90 1017.80 1017.66 1017.47 1017.24 1016.95 1016.62 1016.25 1015.85 1015.45 1015.05 1014.67 1014.32 1014.00 1013.71 1013.43 1013.16 1012.88 1012.57 1012.21 1011.80 1011.33 1010.82 1010.27 1009.70 1009.13 1008.59 1008.08
1017.16 1017.42 1017.63 1017.77 1017.87 1017.93 1017.95 1017.94 1017.90 1017.84 1017.75 1017.62 1017.45 1017.23 1016.96 1016.64 1016.28 1015.89 1015.48 1015.07 1014.67 1014.30 1013.96 1013.66 1013.39 1013.14 1012.89 1012.63 1012.33 1011.99 1011.59 1011.13 1010.63 1010.08 1009.52 1008.95 1008.40 1007.88
Thickness
5544 5543 5541 5539 5538 5536 5534 5532 5527 5522 5521 5521 5520 5519 5517 5514 5511 5508 5506 5503 5501 5499 5497 5495 5493 5491 5489 5487 5485 5484 5483 5482 5480 5479 5479 5478 5477 5477
5533 5531 5530 5528 5526 5524 5522 5520 5517 5514 5510 5510 5509 5507 5505 5502 5499 5497 5494 5491 5489 5486 5484 5482 5480 5477 5475 5473 5471 5469 5468 5467 5466 5464 5463 5462 5461 5460
5523 5520 5518 5517 5514 5512 5510 5508 5505 5502 5498 5497 5497 5495 5492 5489 5487 5484 5481 5479 5476 5474 5471 5469 5466 5463 5461 5459 5457 5455 5453 5452 5450 5448 5446 5445 5443 5442
5512 5509 5507 5506 5503 5501 5498 5496 5494 5491 5488 5485 5483 5481 5478 5476 5474 5471 5468 5466 5463 5460 5457 5455 5452 5449 5447 5444 5442 5439 5437 5435 5433 5431 5429 5427 5425 5423
5503 5499 5496 5494 5491 5489 5487 5484 5482 5479 5476 5472 5470 5468 5465 5463 5460 5458 5455 5453 5450 5447 5444 5441 5438 5435 5432 5430 5426 5424 5421 5418 5416 5413 5411 5409 5407 5405
5493 5489 5486 5484 5481 5478 5475 5472 5469 5465 5462 5458 5456 5453 5451 5449 5445 5442 5441 5439 5436 5433 5430 5427 5424 5421 5418 5415 5412 5408 5405 5401 5398 5396 5394 5391 5389 5388
5481 5479 5476 5473 5470 5467 5464 5460 5456 5452 5448 5445 5442 5440 5437 5434 5430 5428 5426 5424 5422 5418 5416 5413 5410 5407 5403 5400 5396 5392 5389 5385 5382 5379 5377 5375 5373 5372
5470 5467 5464 5461 5458 5456 5453 5449 5445 5441 5436 5433 5430 5427 5425 5421 5418 5415 5410 5408 5407 5405 5401 5400 5395 5392 5389 5385 5381 5377 5373 5370 5367 5364 5361 5360 5359 5358
5458 5455 5452 5449 5446 5443 5440 5437 5434 5430 5427 5423 5419 5417 5414 5410 5406 5402 5397 5394 5393 5390 5385 5386 5381 5378 5375 5371 5366 5362 5359 5355 5352 5349 5347 5346 5345 5344
5446 5444 5440 5437 5434 5431 5428 5424 5421 5418 5415 5412 5409 5407 5403 5398 5394 5390 5386 5383 5382 5377 5370 5367 5367 5364 5362 5358 5352 5348 5345 5342 5339 5336 5334 5333 5332 5331
5435 5432 5429 5426 5423 5420 5416 5412 5409 5407 5403 5401 5398 5394 5391 5386 5381 5377 5372 5367 5367 5365 5357 5351 5351 5349 5349 5346 5341 5336 5332 5329 5326 5324 5322 5320 5319 5319
5423 5421 5419 5416 5412 5409 5404 5401 5398 5396 5392 5389 5386 5382 5378 5374 5369 5364 5359 5354 5351 5350 5347 5339 5336 5331 5333 5334 5329 5325 5320 5317 5314 5312 5311 5309 5308 5308
5412 5410 5407 5405 5402 5398 5394 5391 5388 5385 5381 5378 5374 5370 5366 5362 5357 5352 5347 5341 5337 5336 5333 5326 5322 5317 5314 5318 5318 5313 5310 5307 5304 5302 5300 5299 5298 5297
5401 5399 5396 5394 5390 5387 5383 5380 5377 5373 5369 5365 5361 5357 5353 5350 5345 5341 5336 5331 5327 5323 5320 5314 5310 5307 5303 5303 5305 5304 5300 5297 5294 5293 5292 5290 5289 5288
5390 5388 5386 5382 5378 5374 5371 5368 5364 5360 5356 5352 5348 5345 5341 5337 5332 5327 5323 5319 5316 5313 5309 5304 5300 5297 5293 5292 5292 5292 5289 5289 5286 5284 5283 5282 5281 5280
5378 5376 5374 5370 5366 5363 5359 5356 5351 5347 5343 5339 5336 5332 5328 5323 5319 5314 5310 5307 5305 5303 5299 5295 5291 5287 5285 5283 5282 5282 5280 5278 5278 5276 5275 5275 5273 5272
5366 5363 5359 5356 5352 5350 5347 5343 5339 5334 5330 5326 5322 5318 5314 5310 5306 5302 5298 5295 5292 5291 5289 5286 5282 5279 5277 5275 5274 5274 5272 5271 5269 5268 5266 5267 5267 5265
5354 5350 5347 5344 5341 5338 5335 5331 5326 5322 5318 5313 5309 5305 5301 5298 5295 5291 5287 5284 5283 5281 5279 5277 5274 5272 5270 5270 5268 5267 5266 5264 5263 5260 5258 5258 5260 5260
5342 5339 5336 5333 5330 5326 5322 5319 5315 5311 5306 5302 5298 5294 5290 5287 5284 5281 5278 5275 5273 5272 5270 5268 5264 5262 5262 5264 5264 5261 5257 5257 5255 5254 5252 5251 5253 5255
5330 5327 5324 5321 5317 5314 5311 5307 5303 5299 5295 5292 5288 5285 5281 5278 5275 5273 5270 5267 5265 5264 5262 5260 5257 5255 5254 5254 5255 5255 5252 5249 5248 5247 5247 5247 5248 5250
5318 5315 5312 5309 5306 5303 5300 5296 5293 5289 5286 5283 5280 5277 5274 5271 5268 5265 5263 5261 5259 5257 5255 5254 5253 5251 5249 5246 5246 5249 5248 5245 5242 5241 5241 5240 5242 5244
5305 5303 5300 5298 5295 5292 5289 5286 5283 5280 5277 5275 5272 5269 5267 5264 5261 5259 5257 5254 5253 5251 5249 5249 5247 5245 5243 5241 5241 5242 5242 5241 5240 5238 5237 5236 5235 5237
5294 5292 5290 5287 5284 5282 5279 5276 5274 5272 5269 5267 5265 5262 5260 5257 5255 5253 5251 5249 5247 5245 5244 5243 5242 5240 5239 5237 5236 5236 5235 5235 5235 5236 5236 5236 5235 5236